Location: Port Hueneme
(34.1478°N, 119.1951°W)
Time: 01:43:51
(UTC+00:00)

Cosmos 1354 Rocket - Visible Passes

Search period start: 19 November 2025 00:00
Search period end: 29 November 2025 00:00
Orbit: 760 x 779 km, 74.0° (Epoch: 18 November)

Date Brightness Start Highest point End Pass type
(mag) Time Alt. Az. Time Alt. Az. Time Alt. Az.
21 Nov 6.7 13:59:44 10° NNE 14:01:59 13° ENE 14:04:13 10° E visible
24 Nov 6.3 13:50:36 10° NNE 13:54:38 22° ENE 13:58:37 10° ESE visible
25 Nov 6.7 13:15:27 10° NNE 13:17:45 13° ENE 13:20:03 10° E visible
27 Nov 5.4 13:42:17 10° N 13:47:09 38° ENE 13:51:58 10° SE visible
28 Nov 6.2 13:06:21 10° NNE 13:10:23 22° ENE 13:14:25 10° ESE visible
